Content
SEND FEEDBACK

Daily
Averages
Monthly
Summary
United States of America

ZACHARY, LOUISIANA


Home > North America > United States > Louisiana
Elevation: 90 feet     Latitude: 30 38N     Longitude: 091 08W

WEATHER
 
SELECT A DAY
Number of Records: 200,511;   Date Range: 1/1/95 - 7/29/14
 
SHARE

PRINT THIS DATA

[ ← Previous Day ]
WEATHER ALMANAC - JANUARY 31, 2013
[ Next Day → ]
[ °C ]   °F
Weather ElementAverageHighLow
Temperature48.2 °F59 °F (1:53 pm)36 °F (2:53 am)
Dewpoint30.3 °F35.1 °F (7:53 am)21 °F (3:53 pm)
Humidity55.3 %93 % (2:53 am)23 % (3:53 pm)
Barometer30.27 in30.34 in (9:53 pm)30.21 in (1:53 am)
Wind Speed4.5 mph10.4 mph (8:53 pm)
Weather ElementAverage
Visibility10 mi
Wind DirectionSSE (144.3 °)

Weather ElementTotal
Precipitation---
Heating Degree Days17.5 (Base 65)
Averaged from 23 records on January 31, 2013
WEATHER CONDITIONS BREAKOUT
WIND DIRECTION BREAKOUT
WEATHER BY HOUR - JANUARY 31, 2013
[ °C ]   °F
Local TimeTemperatureDewpointHumidityBarometerVisibilityWind DirectionWind SpeedGust SpeedPrecipitationEventsConditions
1:53 AM37.9 °F34.0 °F86 %30.21 in10.0 miCalmClear
2:53 AM36.0 °F34.0 °F93 %30.21 in10.0 miCalmClear
3:53 AM37.0 °F34.0 °F89 %30.21 in10.0 miCalmClear
4:53 AM37.9 °F33.1 °F83 %30.21 in10.0 miCalmClear
5:53 AM37.9 °F33.1 °F83 %30.23 in10.0 miCalmClear
6:53 AM36.0 °F33.1 °F89 %30.25 in10.0 miCalmClear
7:53 AM41.0 °F35.1 °F79 %30.28 in10.0 miWSW (250°)4.6 mphClear
8:53 AM46.9 °F34.0 °F61 %30.29 in10.0 miSW (220°)5.8 mphClear
9:53 AM51.1 °F32.0 °F48 %30.31 in10.0 miWSW (240°)5.8 mphClear
10:53 AM55.0 °F30.0 °F38 %30.31 in10.0 miWSW (240°)5.8 mphClear
11:53 AM55.9 °F27.0 °F33 %30.30 in10.0 miSW (230°)5.8 mphClear
12:53 PM57.9 °F26.1 °F30 %30.27 in10.0 miVariable4.6 mphClear
1:53 PM59.0 °F23.0 °F25 %30.26 in10.0 miCalmClear
2:53 PM59.0 °F23.0 °F25 %30.25 in10.0 miVariable5.8 mphClear
3:53 PM59.0 °F21.0 °F23 %30.25 in10.0 miWest (280°)6.9 mphClear
4:53 PM57.0 °F26.1 °F30 %30.26 in10.0 miSW (230°)9.2 mphClear
5:53 PM53.1 °F26.1 °F35 %30.26 in10.0 miSW (230°)8.1 mphClear
6:53 PM50.0 °F30.0 °F46 %30.27 in10.0 miWSW (240°)5.8 mphClear
7:53 PM51.1 °F33.1 °F50 %30.29 in10.0 miSW (230°)8.1 mphClear
8:53 PM50.0 °F33.1 °F52 %30.31 in10.0 miSW (230°)10.4 mphClear
9:53 PM48.9 °F33.1 °F54 %30.34 in10.0 miWSW (240°)8.1 mphClear
10:53 PM46.0 °F32.0 °F58 %30.34 in10.0 miSW (230°)3.5 mphClear
11:53 PM44.1 °F32.0 °F63 %30.34 in10.0 miSW (230°)4.6 mphClear
Hourly data recorded from KBTR, located miles away from Zachary, Louisiana







STORIES FROM OUR PARTNERS